QPF
0.00 0.00 0.01 0.00 0.00 0.01 0.01 0.00 0.00 0.00 0.00 0.01 0.01 0.01 0.01 0.01 0.01 0.01 0.02 0.03 0.04 0.04 0.03 0.02 0.01 0.01 0.00 0.00 0.00 0.00 0.00 0.00 0.00 0.00 0.00 0.01 0.01 0.01 0.01 0.00 0.00 0.01 0.01
0.00 0.00 0.00 0.00 0.01 0.01 0.00 0.00 0.00 0.00 0.00 0.01 0.01 0.01 0.01 0.01 0.01 0.02 0.03 0.04 0.04 0.04 0.02 0.01 0.00 0.00 0.00 0.00 0.00 0.00 0.00 0.00 0.00 0.00 0.00 0.00 0.00 0.00 0.00 0.00 0.01 0.01 0.01
0.00 0.00 0.00 0.00 0.01 0.01 0.00 0.00 0.00 0.00 0.00 0.00 0.00 0.01 0.01 0.02 0.02 0.04 0.04 0.04 0.03 0.03 0.01 0.00 0.00 0.00 0.00 0.00 0.00 0.00 0.00 0.00 0.00 0.00 0.00 0.00 0.00 0.00 0.00 0.00 0.01 0.01 0.01
0.00 0.00 0.00 0.00 0.01 0.00 0.00 0.00 0.00 0.00 0.00 0.00 0.00 0.01 0.01 0.02 0.02 0.03 0.02 0.02 0.01 0.01 0.00 0.00 0.00 0.00 0.00 0.00 0.00 0.00 0.00 0.00 0.00 0.00 0.00 0.00 0.00 0.00 0.00 0.00 0.00 0.00 0.01
0.00 0.00 0.00 0.00 0.00 0.00 0.00 0.00 0.00 0.00 0.00 0.00 0.00 0.00 0.01 0.01 0.01 0.01 0.01 0.01 0.00 0.00 0.00 0.00 0.00 0.00 0.00 0.00 0.00 0.00 0.00 0.00 0.00 0.00 0.00 0.00 0.00 0.00 0.00 0.00 0.00 0.00 0.00
0.00 0.00 0.00 0.00 0.00 0.00 0.00 0.00 0.00 0.00 0.00 0.00 0.00 0.00 0.00 0.00 0.00 0.00 0.00 0.00 0.00 0.00 0.00 0.00 0.00 0.00 0.00 0.00 0.00 0.00 0.00 0.00 0.00 0.00 0.00 0.00 0.00 0.00 0.00 0.00 0.00 0.00 0.00
0.00 0.00 0.00 0.00 0.00 0.00 0.00 0.00 0.00 0.00 0.00 0.00 0.00 0.00 0.00 0.00 0.00 0.00 0.00 0.00 0.00 0.00 0.00 0.00 0.00 0.00 0.00 0.00 0.00 0.00 0.00 0.00 0.00 0.00 0.00 0.00 0.00 0.00 0.00 0.00 0.00 0.00 0.00
0.00 0.00 0.01 0.01 0.00 0.00 0.00 0.00 0.00 0.00 0.00 0.01 0.00 0.00 0.00 0.00 0.00 0.00 0.00 0.00 0.00 0.00 0.00 0.00 0.00 0.00 0.00 0.00 0.00 0.00 0.00 0.00 0.00 0.00 0.00 0.00 0.00 0.00 0.00 0.00 0.00 0.00 0.00
0.00 0.00 0.01 0.01 0.00 0.00 0.00 0.00 0.00 0.00 0.00 0.00 0.00 0.00 0.00 0.00 0.00 0.00 0.00 0.00 0.00 0.00 0.00 0.00 0.00 0.00 0.00 0.00 0.00 0.00 0.00 0.00 0.00 0.00 0.00 0.00 0.00 0.00 0.00 0.00 0.00 0.00 0.00
0.01 0.01 0.01 0.01 0.00 0.00 0.00 0.00 0.00 0.00 0.00 0.00 0.00 0.00 0.00 0.00 0.00 0.00 0.00 0.00 0.00 0.00 0.00 0.00 0.00 0.00 0.00 0.00 0.00 0.00 0.00 0.00 0.00 0.00 0.00 0.00 0.00 0.00 0.00 0.00 0.00 0.00 0.00
0.02 0.01 0.01 0.01 0.00 0.00 0.00 0.00 0.00 0.00 0.00 0.00 0.00 0.00 0.00 0.00 0.00 0.00 0.00 0.00 0.00 0.00 0.00 0.00 0.00 0.00 0.00 0.00 0.00 0.00 0.00 0.00 0.00 0.00 0.00 0.00 0.00 0.00 0.00 0.00 0.00 0.00 0.00
0.03 0.01 0.01 0.01 0.00 0.00 0.00 0.00 0.00 0.00 0.00 0.00 0.00 0.00 0.00 0.00 0.00 0.00 0.00 0.00 0.00 0.00 0.00 0.00 0.00 0.00 0.00 0.00 0.00 0.00 0.00 0.00 0.00 0.00 0.00 0.00 0.00 0.00 0.00 0.00 0.00 0.00 0.00
0.05 0.03 0.01 0.01 0.01 0.01 0.00 0.00 0.00 0.00 0.00 0.00 0.00 0.00 0.00 0.00 0.00 0.00 0.00 0.00 0.00 0.00 0.00 0.00 0.00 0.00 0.00 0.00 0.00 0.00 0.00 0.00 0.00 0.00 0.00 0.00 0.00 0.00 0.00 0.00 0.00 0.00 0.00
0.10 0.06 0.03 0.02 0.01 0.01 0.01 0.01 0.00 0.00 0.00 0.00 0.00 0.00 0.00 0.00 0.00 0.00 0.00 0.00 0.00 0.00 0.00 0.00 0.00 0.00 0.00 0.00 0.00 0.00 0.00 0.00 0.00 0.00 0.00 0.00 0.00 0.00 0.00 0.00 0.00 0.00 0.00
0.10 0.08 0.05 0.03 0.02 0.02 0.01 0.01 0.01 0.01 0.00 0.00 0.00 0.00 0.00 0.00 0.00 0.00 0.00 0.00 0.00 0.00 0.00 0.00 0.00 0.00 0.00 0.00 0.00 0.00 0.00 0.00 0.00 0.00 0.00 0.00 0.00 0.00 0.00 0.00 0.00 0.00 0.00
0.10 0.09 0.07 0.05 0.03 0.02 0.02 0.02 0.01 0.01 0.01 0.01 0.00 0.00 0.00 0.00 0.00 0.00 0.00 0.00 0.00 0.00 0.00 0.00 0.00 0.00 0.00 0.00 0.00 0.00 0.00 0.00 0.00 0.00 0.00 0.00 0.00 0.00 0.00 0.00 0.00 0.01 0.01
0.11 0.13 0.11 0.07 0.05 0.03 0.03 0.02 0.03 0.01 0.01 0.01 0.01 0.01 0.00 0.00 0.00 0.00 0.00 0.00 0.00 0.00 0.00 0.00 0.00 0.00 0.00 0.00 0.00 0.00 0.00 0.00 0.00 0.00 0.00 0.00 0.00 0.00 0.00 0.00 0.01 0.01 0.02
0.10 0.13 0.12 0.09 0.08 0.06 0.05 0.04 0.03 0.03 0.03 0.03 0.03 0.02 0.01 0.00 0.00 0.00 0.00 0.00 0.00 0.00 0.00 0.00 0.00 0.00 0.00 0.00 0.00 0.00 0.00 0.00 0.00 0.00 0.00 0.00 0.00 0.00 0.00 0.00 0.00 0.01 0.02
0.08 0.09 0.11 0.10 0.09 0.10 0.08 0.05 0.05 0.05 0.04 0.04 0.04 0.03 0.02 0.01 0.01 0.01 0.01 0.01 0.00 0.00 0.01 0.00 0.00 0.00 0.00 0.00 0.00 0.00 0.00 0.00 0.00 0.00 0.00 0.00 0.00 0.00 0.00 0.00 0.00 0.00 0.01
0.05 0.08 0.10 0.13 0.13 0.13 0.10 0.08 0.08 0.09 0.07 0.06 0.06 0.06 0.04 0.02 0.02 0.01 0.01 0.01 0.01 0.01 0.01 0.01 0.00 0.00 0.00 0.00 0.00 0.00 0.00 0.00 0.00 0.00 0.00 0.00 0.00 0.00 0.00 0.00 0.00 0.00 0.00
0.04 0.07 0.08 0.08 0.12 0.12 0.09 0.07 0.07 0.07 0.08 0.08 0.08 0.07 0.05 0.04 0.03 0.02 0.02 0.02 0.02 0.01 0.01 0.01 0.01 0.01 0.01 0.00 0.00 0.00 0.00 0.00 0.00 0.00 0.00 0.00 0.00 0.00 0.00 0.00 0.00 0.00 0.00
0.05 0.04 0.05 0.07 0.08 0.09 0.08 0.08 0.08 0.08 0.08 0.07 0.08 0.07 0.06 0.05 0.05 0.04 0.04 0.03 0.02 0.02 0.02 0.02 0.02 0.02 0.01 0.01 0.01 0.01 0.00 0.00 0.00 0.00 0.00 0.00 0.00 0.00 0.00 0.00 0.00 0.00 0.00
0.04 0.03 0.03 0.04 0.07 0.07 0.08 0.10 0.10 0.11 0.09 0.06 0.05 0.04 0.04 0.06 0.07 0.06 0.05 0.04 0.03 0.03 0.03 0.02 0.03 0.03 0.02 0.02 0.02 0.02 0.01 0.00 0.00 0.00 0.00 0.00 0.00 0.00 0.00 0.00 0.00 0.00 0.00
0.03 0.03 0.03 0.04 0.06 0.06 0.07 0.07 0.06 0.06 0.06 0.06 0.07 0.08 0.08 0.08 0.08 0.08 0.08 0.07 0.06 0.05 0.04 0.04 0.03 0.03 0.02 0.02 0.02 0.02 0.02 0.01 0.01 0.01 0.00 0.00 0.00 0.00 0.00 0.00 0.00 0.00 0.00
0.02 0.03 0.03 0.04 0.06 0.07 0.07 0.07 0.07 0.07 0.08 0.08 0.09 0.09 0.09 0.10 0.10 0.09 0.07 0.05 0.04 0.03 0.03 0.02 0.02 0.02 0.02 0.02 0.02 0.02 0.02 0.02 0.02 0.02 0.01 0.00 0.00 0.00 0.00 0.00 0.00 0.00 0.00
0.01 0.02 0.03 0.04 0.06 0.09 0.10 0.10 0.10 0.09 0.08 0.08 0.09 0.09 0.09 0.08 0.08 0.07 0.07 0.06 0.04 0.03 0.03 0.03 0.03 0.02 0.02 0.02 0.02 0.02 0.02 0.02 0.02 0.02 0.01 0.01 0.00 0.00 0.00 0.00 0.00 0.00 0.00
MSLP
1014.90 1014.75 1014.75 1014.92 1015.22 1015.61 1015.99 1016.29 1016.46 1016.50 1016.42 1016.28 1016.17 1016.13 1016.21 1016.41 1016.70 1017.04 1017.37 1017.65 1017.88 1018.04 1018.17 1018.28 1018.40 1018.54 1018.70 1018.86 1019.00 1019.10 1019.16 1019.18 1019.16 1019.14 1019.10 1019.07 1019.04 1018.99 1018.93 1018.84 1018.73 1018.60 1018.48
1014.66 1014.59 1014.67 1014.91 1015.28 1015.70 1016.10 1016.41 1016.58 1016.63 1016.57 1016.48 1016.43 1016.47 1016.62 1016.88 1017.22 1017.57 1017.91 1018.18 1018.38 1018.53 1018.63 1018.72 1018.82 1018.94 1019.07 1019.19 1019.30 1019.37 1019.40 1019.42 1019.41 1019.41 1019.42 1019.43 1019.43 1019.41 1019.36 1019.27 1019.15 1019.01 1018.87
1014.47 1014.48 1014.64 1014.95 1015.37 1015.83 1016.25 1016.56 1016.75 1016.81 1016.79 1016.76 1016.77 1016.87 1017.08 1017.38 1017.73 1018.09 1018.40 1018.64 1018.82 1018.93 1019.01 1019.09 1019.17 1019.28 1019.39 1019.49 1019.57 1019.62 1019.64 1019.66 1019.67 1019.70 1019.75 1019.80 1019.84 1019.85 1019.81 1019.72 1019.59 1019.44 1019.29
1014.42 1014.49 1014.71 1015.08 1015.54 1016.02 1016.45 1016.77 1016.96 1017.04 1017.05 1017.05 1017.12 1017.27 1017.51 1017.83 1018.18 1018.52 1018.79 1019.00 1019.13 1019.22 1019.29 1019.36 1019.45 1019.56 1019.67 1019.77 1019.84 1019.88 1019.90 1019.92 1019.94 1020.00 1020.08 1020.16 1020.23 1020.26 1020.23 1020.15 1020.02 1019.86 1019.70
1014.51 1014.64 1014.91 1015.31 1015.79 1016.28 1016.70 1017.01 1017.20 1017.27 1017.30 1017.33 1017.42 1017.60 1017.86 1018.19 1018.52 1018.82 1019.06 1019.23 1019.34 1019.41 1019.48 1019.57 1019.68 1019.81 1019.94 1020.04 1020.12 1020.16 1020.18 1020.20 1020.23 1020.30 1020.39 1020.49 1020.57 1020.61 1020.59 1020.52 1020.39 1020.23 1020.08
1014.75 1014.92 1015.22 1015.65 1016.14 1016.61 1017.00 1017.28 1017.44 1017.50 1017.52 1017.56 1017.66 1017.86 1018.13 1018.44 1018.75 1019.03 1019.24 1019.38 1019.48 1019.55 1019.64 1019.75 1019.89 1020.05 1020.21 1020.34 1020.42 1020.46 1020.48 1020.49 1020.51 1020.57 1020.66 1020.76 1020.84 1020.89 1020.87 1020.80 1020.68 1020.54 1020.40
1015.08 1015.29 1015.62 1016.06 1016.53 1016.97 1017.32 1017.55 1017.67 1017.70 1017.71 1017.74 1017.85 1018.05 1018.32 1018.62 1018.93 1019.18 1019.38 1019.51 1019.60 1019.69 1019.80 1019.94 1020.12 1020.31 1020.49 1020.64 1020.73 1020.77 1020.77 1020.77 1020.78 1020.82 1020.88 1020.97 1021.04 1021.08 1021.06 1021.00 1020.90 1020.78 1020.66
1015.45 1015.69 1016.04 1016.47 1016.92 1017.33 1017.63 1017.82 1017.89 1017.89 1017.88 1017.91 1018.02 1018.22 1018.49 1018.80 1019.10 1019.35 1019.54 1019.67 1019.77 1019.87 1020.00 1020.17 1020.37 1020.58 1020.78 1020.93 1021.02 1021.05 1021.04 1021.01 1021.00 1021.01 1021.05 1021.11 1021.17 1021.19 1021.18 1021.13 1021.04 1020.95 1020.88
1015.75 1016.04 1016.42 1016.86 1017.29 1017.66 1017.92 1018.06 1018.10 1018.08 1018.06 1018.09 1018.21 1018.42 1018.70 1019.02 1019.32 1019.57 1019.76 1019.90 1020.01 1020.12 1020.25 1020.43 1020.64 1020.85 1021.04 1021.18 1021.26 1021.28 1021.25 1021.20 1021.16 1021.15 1021.16 1021.20 1021.24 1021.26 1021.25 1021.21 1021.15 1021.09 1021.05
1015.95 1016.30 1016.71 1017.16 1017.58 1017.93 1018.17 1018.28 1018.31 1018.28 1018.26 1018.30 1018.44 1018.66 1018.96 1019.28 1019.59 1019.85 1020.05 1020.19 1020.30 1020.41 1020.54 1020.70 1020.89 1021.08 1021.25 1021.37 1021.43 1021.42 1021.38 1021.31 1021.26 1021.23 1021.23 1021.25 1021.28 1021.29 1021.29 1021.26 1021.22 1021.19 1021.18
1016.00 1016.41 1016.87 1017.34 1017.77 1018.12 1018.35 1018.46 1018.49 1018.47 1018.47 1018.54 1018.69 1018.93 1019.24 1019.57 1019.89 1020.15 1020.35 1020.49 1020.59 1020.69 1020.79 1020.93 1021.08 1021.24 1021.37 1021.46 1021.50 1021.48 1021.42 1021.35 1021.29 1021.25 1021.25 1021.26 1021.29 1021.30 1021.30 1021.29 1021.26 1021.25 1021.26
1015.90 1016.38 1016.90 1017.40 1017.85 1018.20 1018.44 1018.58 1018.62 1018.64 1018.66 1018.75 1018.92 1019.17 1019.49 1019.82 1020.14 1020.40 1020.60 1020.73 1020.83 1020.90 1020.98 1021.08 1021.20 1021.31 1021.41 1021.47 1021.49 1021.46 1021.40 1021.33 1021.26 1021.23 1021.22 1021.24 1021.26 1021.28 1021.28 1021.27 1021.26 1021.26 1021.27
1015.67 1016.22 1016.78 1017.31 1017.78 1018.16 1018.43 1018.59 1018.67 1018.72 1018.78 1018.89 1019.07 1019.32 1019.63 1019.95 1020.26 1020.52 1020.71 1020.85 1020.94 1021.00 1021.07 1021.14 1021.22 1021.30 1021.37 1021.41 1021.41 1021.38 1021.32 1021.25 1021.20 1021.16 1021.15 1021.16 1021.18 1021.20 1021.20 1021.20 1021.19 1021.19 1021.20
1015.36 1015.95 1016.53 1017.09 1017.57 1017.97 1018.27 1018.47 1018.59 1018.68 1018.77 1018.89 1019.08 1019.32 1019.61 1019.91 1020.20 1020.46 1020.65 1020.79 1020.90 1020.97 1021.03 1021.09 1021.16 1021.23 1021.28 1021.31 1021.30 1021.27 1021.22 1021.15 1021.10 1021.06 1021.03 1021.03 1021.03 1021.04 1021.04 1021.04 1021.03 1021.02 1021.04
1015.01 1015.59 1016.18 1016.73 1017.22 1017.64 1017.97 1018.21 1018.37 1018.50 1018.61 1018.74 1018.92 1019.14 1019.40 1019.67 1019.95 1020.20 1020.41 1020.57 1020.70 1020.80 1020.89 1020.97 1021.05 1021.11 1021.17 1021.20 1021.20 1021.16 1021.11 1021.04 1020.97 1020.91 1020.86 1020.83 1020.81 1020.80 1020.79 1020.78 1020.78 1020.78 1020.79
1014.64 1015.18 1015.73 1016.26 1016.74 1017.17 1017.53 1017.81 1018.02 1018.18 1018.32 1018.46 1018.61 1018.80 1019.03 1019.27 1019.53 1019.78 1020.01 1020.21 1020.39 1020.54 1020.67 1020.79 1020.90 1020.99 1021.06 1021.10 1021.10 1021.07 1021.01 1020.92 1020.82 1020.73 1020.64 1020.57 1020.52 1020.48 1020.46 1020.46 1020.47 1020.49 1020.51
1014.28 1014.75 1015.23 1015.71 1016.17 1016.61 1016.99 1017.31 1017.58 1017.78 1017.94 1018.08 1018.22 1018.38 1018.57 1018.79 1019.03 1019.28 1019.54 1019.79 1020.02 1020.23 1020.42 1020.60 1020.75 1020.87 1020.96 1021.02 1021.02 1020.99 1020.91 1020.80 1020.67 1020.52 1020.39 1020.27 1020.19 1020.14 1020.12 1020.13 1020.16 1020.21 1020.26
1013.95 1014.31 1014.70 1015.13 1015.57 1016.00 1016.42 1016.79 1017.10 1017.35 1017.54 1017.69 1017.82 1017.96 1018.11 1018.31 1018.54 1018.80 1019.08 1019.37 1019.66 1019.93 1020.18 1020.40 1020.59 1020.75 1020.86 1020.93 1020.94 1020.90 1020.81 1020.67 1020.50 1020.32 1020.14 1020.00 1019.89 1019.82 1019.82 1019.85 1019.92 1020.01 1020.10
1013.64 1013.89 1014.19 1014.56 1014.97 1015.41 1015.86 1016.28 1016.65 1016.96 1017.18 1017.35 1017.48 1017.60 1017.74 1017.91 1018.13 1018.39 1018.69 1019.01 1019.34 1019.66 1019.95 1020.21 1020.43 1020.61 1020.74 1020.82 1020.84 1020.79 1020.69 1020.54 1020.35 1020.14 1019.94 1019.78 1019.66 1019.61 1019.63 1019.70 1019.82 1019.96 1020.09
1013.34 1013.49 1013.72 1014.03 1014.42 1014.88 1015.36 1015.84 1016.27 1016.62 1016.90 1017.10 1017.24 1017.36 1017.48 1017.64 1017.85 1018.11 1018.42 1018.75 1019.09 1019.42 1019.73 1020.01 1020.24 1020.43 1020.57 1020.66 1020.69 1020.65 1020.56 1020.41 1020.22 1020.02 1019.82 1019.67 1019.58 1019.56 1019.62 1019.74 1019.91 1020.10 1020.27
1013.05 1013.13 1013.30 1013.57 1013.95 1014.42 1014.94 1015.46 1015.94 1016.36 1016.68 1016.91 1017.08 1017.21 1017.34 1017.50 1017.70 1017.95 1018.25 1018.58 1018.91 1019.24 1019.54 1019.80 1020.03 1020.21 1020.35 1020.45 1020.49 1020.48 1020.41 1020.29 1020.14 1019.96 1019.81 1019.69 1019.65 1019.68 1019.79 1019.97 1020.20 1020.42 1020.62
1012.75 1012.79 1012.93 1013.18 1013.56 1014.03 1014.57 1015.12 1015.65 1016.11 1016.48 1016.76 1016.97 1017.13 1017.28 1017.45 1017.65 1017.90 1018.18 1018.49 1018.80 1019.09 1019.36 1019.59 1019.80 1019.97 1020.11 1020.21 1020.28 1020.30 1020.27 1020.20 1020.10 1019.99 1019.90 1019.85 1019.86 1019.96 1020.14 1020.38 1020.64 1020.90 1021.11
1012.43 1012.47 1012.61 1012.85 1013.21 1013.68 1014.22 1014.79 1015.34 1015.84 1016.26 1016.58 1016.84 1017.05 1017.24 1017.44 1017.66 1017.91 1018.19 1018.47 1018.74 1018.99 1019.22 1019.41 1019.58 1019.73 1019.86 1019.98 1020.07 1020.14 1020.17 1020.16 1020.13 1020.09 1020.07 1020.10 1020.19 1020.36 1020.59 1020.88 1021.18 1021.45 1021.66
1012.10 1012.18 1012.32 1012.55 1012.90 1013.34 1013.86 1014.42 1014.98 1015.49 1015.94 1016.33 1016.65 1016.92 1017.18 1017.43 1017.70 1017.97 1018.24 1018.50 1018.75 1018.96 1019.14 1019.29 1019.43 1019.56 1019.69 1019.81 1019.93 1020.03 1020.11 1020.17 1020.20 1020.24 1020.29 1020.39 1020.54 1020.77 1021.06 1021.38 1021.70 1021.98 1022.18
1011.79 1011.91 1012.06 1012.29 1012.60 1013.00 1013.48 1014.00 1014.54 1015.06 1015.55 1015.98 1016.37 1016.73 1017.07 1017.40 1017.73 1018.04 1018.34 1018.60 1018.82 1019.00 1019.15 1019.27 1019.38 1019.49 1019.61 1019.74 1019.88 1020.01 1020.12 1020.22 1020.30 1020.39 1020.49 1020.64 1020.85 1021.12 1021.45 1021.80 1022.14 1022.43 1022.62
1011.51 1011.68 1011.85 1012.06 1012.34 1012.68 1013.10 1013.57 1014.07 1014.59 1015.10 1015.58 1016.06 1016.51 1016.95 1017.37 1017.78 1018.15 1018.48 1018.76 1018.98 1019.14 1019.26 1019.36 1019.45 1019.55 1019.66 1019.79 1019.93 1020.07 1020.20 1020.31 1020.41 1020.51 1020.64 1020.81 1021.05 1021.35 1021.70 1022.07 1022.43 1022.72 1022.92
Thickness
5754 5755 5754 5753 5751 5749 5748 5748 5747 5747 5746 5746 5746 5745 5745 5744 5743 5742 5741 5740 5738 5736 5735 5733 5731 5730 5728 5727 5725 5723 5722 5721 5719 5718 5718 5717 5716 5715 5714 5713 5712 5712 5711
5757 5754 5752 5750 5749 5747 5746 5745 5745 5744 5744 5743 5743 5743 5742 5741 5740 5739 5738 5736 5735 5733 5731 5730 5728 5727 5725 5723 5722 5720 5719 5718 5716 5715 5714 5714 5713 5712 5711 5710 5709 5708 5707
5754 5751 5749 5748 5746 5745 5743 5743 5742 5742 5741 5741 5741 5740 5739 5739 5738 5736 5735 5733 5731 5730 5728 5726 5725 5723 5722 5720 5719 5718 5717 5715 5714 5712 5711 5711 5710 5709 5707 5706 5705 5704 5703
5751 5748 5746 5745 5743 5742 5741 5740 5739 5739 5738 5738 5738 5737 5736 5735 5734 5733 5731 5729 5728 5726 5724 5723 5721 5720 5718 5717 5716 5715 5714 5713 5711 5710 5709 5708 5706 5705 5704 5703 5702 5700 5699
5746 5744 5743 5742 5740 5739 5738 5737 5736 5736 5735 5735 5735 5734 5733 5732 5730 5729 5727 5726 5724 5722 5721 5719 5718 5717 5716 5714 5713 5712 5711 5710 5708 5707 5706 5704 5703 5702 5701 5699 5698 5696 5695
5741 5740 5739 5738 5737 5736 5735 5734 5734 5733 5732 5732 5731 5730 5730 5728 5727 5725 5723 5722 5721 5719 5718 5717 5715 5714 5713 5712 5711 5709 5708 5707 5705 5704 5702 5701 5700 5699 5697 5695 5694 5692 5691
5735 5735 5734 5734 5733 5732 5732 5731 5731 5730 5729 5728 5728 5727 5726 5725 5723 5722 5720 5719 5717 5716 5715 5714 5712 5711 5710 5709 5708 5707 5705 5704 5702 5701 5699 5698 5697 5696 5694 5692 5690 5688 5686
5731 5730 5730 5730 5729 5729 5728 5728 5728 5727 5726 5725 5724 5723 5722 5721 5719 5718 5717 5715 5714 5713 5712 5710 5709 5708 5707 5706 5705 5704 5702 5701 5700 5698 5696 5695 5694 5693 5691 5688 5686 5684 5682
5725 5726 5725 5725 5725 5725 5725 5725 5724 5724 5723 5722 5721 5720 5719 5717 5716 5715 5714 5712 5711 5710 5708 5707 5706 5705 5704 5703 5702 5701 5700 5698 5697 5696 5694 5692 5691 5689 5687 5685 5682 5680 5678
5720 5721 5721 5721 5721 5721 5721 5721 5720 5720 5719 5718 5717 5716 5715 5714 5713 5711 5710 5709 5708 5706 5705 5704 5703 5702 5702 5701 5700 5699 5697 5696 5694 5693 5691 5690 5688 5686 5684 5681 5679 5676 5674
5714 5716 5717 5717 5717 5717 5717 5717 5716 5716 5715 5715 5713 5712 5711 5710 5709 5708 5707 5706 5705 5704 5702 5701 5700 5699 5699 5698 5697 5696 5695 5693 5692 5690 5689 5687 5685 5683 5681 5678 5675 5673 5670
5710 5712 5714 5714 5713 5713 5713 5713 5712 5712 5712 5711 5710 5709 5708 5706 5705 5705 5704 5703 5702 5701 5699 5698 5697 5696 5695 5694 5694 5693 5692 5690 5689 5687 5686 5684 5682 5680 5678 5675 5672 5669 5666
5709 5709 5710 5710 5710 5710 5710 5709 5709 5709 5708 5708 5707 5706 5704 5703 5702 5701 5700 5699 5698 5697 5696 5695 5694 5693 5692 5691 5690 5690 5688 5687 5686 5684 5683 5681 5679 5677 5674 5671 5668 5665 5662
5705 5706 5708 5708 5708 5708 5708 5707 5706 5706 5705 5705 5704 5703 5701 5700 5699 5698 5697 5696 5695 5694 5693 5692 5691 5690 5689 5688 5687 5686 5685 5684 5683 5681 5680 5678 5676 5674 5671 5668 5665 5661 5658
5702 5704 5705 5706 5705 5705 5704 5704 5704 5703 5703 5703 5702 5701 5699 5698 5696 5695 5694 5693 5692 5691 5690 5689 5688 5686 5685 5685 5684 5683 5682 5681 5680 5678 5677 5675 5673 5670 5667 5664 5661 5658 5654
5699 5702 5703 5703 5704 5703 5702 5702 5702 5701 5701 5700 5700 5699 5698 5696 5694 5692 5691 5690 5689 5688 5687 5686 5685 5683 5682 5681 5680 5679 5678 5677 5676 5675 5673 5671 5669 5666 5663 5660 5657 5654 5650
5695 5698 5700 5701 5701 5701 5700 5700 5699 5699 5698 5698 5697 5696 5695 5694 5692 5690 5688 5687 5686 5685 5684 5682 5681 5679 5678 5678 5676 5676 5675 5673 5672 5671 5669 5667 5664 5662 5659 5655 5652 5649 5645
5692 5694 5697 5698 5697 5697 5697 5696 5696 5696 5695 5694 5694 5693 5691 5690 5689 5687 5685 5684 5683 5681 5679 5678 5676 5674 5673 5672 5671 5670 5670 5669 5667 5666 5664 5662 5660 5657 5654 5650 5647 5643 5639
5689 5690 5691 5693 5693 5693 5692 5691 5691 5691 5691 5690 5689 5688 5687 5686 5684 5683 5681 5679 5678 5676 5675 5673 5671 5669 5667 5666 5665 5664 5664 5663 5662 5660 5658 5656 5654 5651 5648 5644 5640 5636 5632
5683 5685 5687 5688 5687 5687 5686 5685 5684 5684 5685 5684 5684 5683 5682 5681 5679 5678 5676 5674 5672 5670 5669 5667 5665 5663 5662 5660 5659 5658 5657 5656 5655 5653 5651 5649 5646 5644 5641 5637 5633 5628 5624
5676 5678 5680 5680 5681 5680 5678 5678 5676 5676 5678 5677 5677 5677 5676 5675 5673 5672 5670 5668 5666 5664 5662 5661 5659 5656 5654 5653 5650 5648 5648 5648 5647 5646 5644 5641 5638 5635 5631 5628 5624 5619 5615
5669 5671 5673 5674 5675 5675 5675 5674 5673 5672 5671 5671 5670 5669 5669 5668 5667 5665 5663 5661 5659 5657 5655 5653 5651 5649 5647 5645 5642 5638 5636 5637 5637 5636 5633 5630 5627 5624 5621 5617 5613 5609 5605
5662 5665 5668 5669 5670 5670 5669 5667 5664 5662 5661 5660 5660 5660 5660 5660 5659 5657 5655 5653 5651 5649 5647 5645 5643 5641 5639 5637 5635 5631 5627 5625 5625 5624 5620 5617 5615 5612 5609 5605 5602 5598 5594
5656 5659 5661 5663 5663 5663 5662 5661 5659 5656 5655 5656 5654 5652 5651 5651 5650 5648 5646 5644 5642 5640 5638 5636 5635 5633 5631 5628 5625 5624 5622 5619 5615 5613 5609 5605 5602 5598 5596 5593 5589 5586 5583
5650 5651 5653 5655 5655 5655 5655 5654 5652 5651 5650 5648 5646 5643 5641 5640 5639 5638 5636 5634 5632 5630 5628 5627 5625 5623 5622 5619 5617 5615 5613 5610 5607 5604 5601 5594 5588 5584 5581 5579 5577 5574 5571
5640 5642 5643 5645 5645 5646 5646 5645 5644 5643 5641 5638 5636 5633 5631 5629 5628 5627 5625 5624 5622 5620 5618 5616 5615 5613 5611 5610 5607 5605 5603 5601 5598 5595 5592 5588 5581 5573 5568 5566 5564 5561 5559